This is the latest recevied weather packets stored in our database for station/object KD9JJA. If no packets are shown the sender has not sent any weather packets the latest 10 day(s).
| Time | Temp. | Humidity | Pressure | Rain* | Wind** | Luminosity | Snow |
|---|---|---|---|---|---|---|---|
| 1777601295 | 11.11° C | 82% | 1017.3 hPa | 0 mm | - | 0 W/m² | - |
| 1777600992 | 11.11° C | 85% | 1016.9 hPa | 0 mm | - | 0 W/m² | - |
| 1777600689 | 11.67° C | 85% | 1016.7 hPa | 0 mm | - | 0 W/m² | - |
| 1777600384 | 11.67° C | 84% | 1016.7 hPa | 0 mm | - | 0 W/m² | - |
| 1777600080 | 11.67° C | 83% | 1016.7 hPa | 0 mm | - | 0 W/m² | - |
| 1777599776 | 11.67° C | 81% | 1016.7 hPa | 0 mm | - | 0 W/m² | - |
| 1777599472 | 11.67° C | 79% | 1016.6 hPa | 0 mm | - | 0 W/m² | - |
| 1777599170 | 11.67° C | 78% | 1016.9 hPa | 0 mm | - | 0 W/m² | - |
| 1777598870 | 12.22° C | 77% | 1016.9 hPa | 0 mm | - | 0 W/m² | - |
| 1777598569 | 12.22° C | 76% | 1016.7 hPa | 0 mm | - | 0 W/m² | - |
| 1777598264 | 12.22° C | 75% | 1016.9 hPa | 0 mm | - | 0 W/m² | - |
| 1777597963 | 12.22° C | 75% | 1016.7 hPa | 0 mm | - | 0 W/m² | - |
| 1777597662 | 12.22° C | 74% | 1016.7 hPa | 0 mm | - | 0 W/m² | - |
| 1777597357 | 12.78° C | 72% | 1016.5 hPa | 0 mm | - | 0 W/m² | - |
| 1777597053 | 12.78° C | 72% | 1016.3 hPa | 0 mm | - | 0 W/m² | - |
| 1777596750 | 12.78° C | 71% | 1016.6 hPa | 0 mm | - | 0 W/m² | - |
| 1777596446 | 12.78° C | 69% | 1016.7 hPa | 0 mm | - | 0 W/m² | - |
| 1777596144 | 13.33° C | 69% | 1016.7 hPa | 0 mm | - | 0 W/m² | - |
| 1777595840 | 13.33° C | 70% | 1016.6 hPa | 0 mm | - | 0 W/m² | - |
| 1777595535 | 13.89° C | 68% | 1016.3 hPa | 0 mm | - | 0 W/m² | - |
| 1777595231 | 13.89° C | 68% | 1016.3 hPa | 0 mm | - | 2 W/m² | - |
| 1777594927 | 14.44° C | 67% | 1016.3 hPa | 0 mm | - | 3 W/m² | - |
| 1777594623 | 15° C | 63% | 1016 hPa | 0 mm | - | 4 W/m² | - |
| 1777594320 | 15° C | 62% | 1016.1 hPa | 0 mm | - | 5 W/m² | - |
| 1777594016 | 15° C | 62% | 1016.1 hPa | 0 mm | - | 6 W/m² | - |
* Rain latest hour (hover to see other rain measurements)
** Current wind speed in m/s (hover to see current wind gust speed)